カタログに戻る

STARLINK-30908

運用中通信VLEO
NORAD 58424·PAYLOAD·🇺🇸 United States

打ち上げ Nov 22, 2023 から Cape Canaveral Space Force Station

Loading…

次のパス (今後24時間)

TLE

最新Source: CelesTrak SupGP

元期: Sep 14, 2026, 22:38 UTC

1 58424C 23180Y   26257.94354167  .00059570  00000+0  21575-2 0  2572
2 58424  43.0006  63.5565 0001411 276.2924 348.4006 15.27551256    12

AllMySatでSTARLINK-30908をリアルタイム追跡

Download on the App Store